Location: Wayah Bald
(35.1806°N, 83.5603°W)
Time: 04:02:07
(UTC-04:00)

Daily predictions for brighter satellites

Satellite Brightness Start Highest point End
(mag) Time Altitude Azimuth Time Altitude Azimuth Time Altitude Azimuth
SL-16 R/B 4.4 00:11:47 20° N 00:11:47 20° N 00:13:36 10° N
ATLAS CENTAUR R/B 4.5 01:19:54 70° NNW 01:19:54 70° NNW 01:42:22 10° NE
ATLAS 3B R/B 3.9 02:40:30 41° N 02:40:30 41° N 02:45:18 10° NNE
Cosmos 2333 Rocket 4.5 02:45:46 19° N 02:45:46 19° N 02:47:31 10° N
SL-16 R/B 4.4 02:46:25 21° NNE 02:46:25 21° NNE 02:48:14 10° NNE
Cosmos 2237 Rocket 4.5 02:52:23 19° N 02:52:23 19° N 02:54:08 10° N
USA 238 DEB 4.5 03:28:04 47° N 03:28:04 47° N 03:33:18 10° NNE
USA 238 4.5 03:28:10 47° N 03:28:10 47° N 03:33:24 10° NNE
USA 234 3.7 03:24:59 10° NE 03:29:55 55° NE 03:29:55 55° NE
NOSS 3-2 (A) 4.1 03:44:53 53° NE 03:44:53 53° NE 03:49:46 10° NNE
Cosmos 1943 4.1 03:57:59 45° ENE 03:57:59 45° ENE 04:02:30 10° NNE
NOSS 3-2 (C) 3.7 03:59:51 64° NE 03:59:51 64° NE 04:05:21 10° NNE
CENTAUR R/B 4.2 04:04:39 19° SE 04:06:09 21° ESE 04:10:45 10° ENE
CZ-2D R/B 2.8 04:02:36 10° NNE 04:06:51 51° ENE 04:06:51 51° ENE
Cosmos 2369 Rocket 3.5 04:06:46 10° N 04:11:57 37° ENE 04:17:07 10° SE
CZ-4C R/B 3.6 04:13:58 28° NNW 04:13:58 28° NNW 04:18:04 10° NNE
Cosmos 1455 4.4 04:19:26 25° ENE 04:19:26 25° ENE 04:21:56 10° NNE
Okean O Rocket 3.6 04:16:03 10° NE 04:19:35 23° E 04:20:18 22° ESE
SL-16 R/B 4.4 04:28:18 14° NW 04:28:18 14° NW 04:30:13 10° NNW
Cosmos 494 Rocket 4.1 04:29:15 71° NNE 04:29:15 71° NNE 04:33:56 10° NNE
SL-16 R/B 2.3 04:34:24 75° WSW 04:34:36 76° WSW 04:40:48 10° NNW
CZ-3A R/B 4.0 04:32:23 45° WSW 04:36:18 74° NW 05:43:23 10° NE
IRS-1D 4.0 04:32:59 10° N 04:37:09 49° NW 04:37:09 49° NW
Meteor 1-27 4.5 04:40:43 52° NW 04:40:43 52° NW 04:45:28 10° N
CZ-2D R/B 3.9 04:38:06 10° NNE 04:42:05 64° ENE 04:42:05 64° ENE
Cosmos 1943 Rocket 4.2 04:37:44 10° N 04:42:35 28° ENE 04:47:22 10° ESE
Resurs 1-4 Rocket 2.4 04:43:51 10° N 04:48:33 51° NW 04:48:33 51° NW
Cosmos 2242 Rocket 4.0 04:51:13 53° NNW 04:51:13 53° NNW 04:54:57 10° N
ARIANE 5 R/B 3.4 04:46:56 10° N 04:50:57 35° NW 04:50:57 35° NW
Meteor 2-11 Rocket 4.3 04:50:16 46° S 04:52:14 88° E 04:58:20 10° N
CZ-4B R/B 4.3 04:49:23 10° NE 04:52:39 30° E 04:53:37 26° SE
OAO 3 Copernicus 4.1 04:54:53 78° W 04:55:14 89° S 05:00:18 10° E
Cosmos 1331 Rocket 3.9 04:51:31 10° NNW 04:56:46 70° WSW 04:57:16 65° SW
MOS 1-B 4.3 04:52:23 10° N 04:58:07 66° WNW 04:59:12 54° WSW
UNKNOWN OBJECT B 4.1 04:57:03 10° N 04:59:07 29° NNW 04:59:07 29° NNW
Cosmos 1869 3.3 05:00:56 74° ESE 05:01:01 75° E 05:05:00 10° N
Cosmos 1862 Rocket 3.4 05:05:10 62° S 05:05:53 85° E 05:10:16 10° N
ADEOS II 4.1 05:02:39 10° NE 05:06:58 25° E 05:11:16 10° SSE
Cosmos 1184 Rocket 3.7 05:05:44 10° N 05:09:06 51° E 05:10:14 34° SE
ATLAS 5 CENTAUR R/B 1.7 05:09:30 58° WSW 05:10:20 71° WNW 05:15:27 10° NNE
Cosmos 1709 Rocket 4.0 05:04:29 10° NNW 05:10:43 61° W 05:13:53 30° SSW
SeaSat 1 2.3 05:07:20 10° SSE 05:12:15 87° WSW 05:17:13 10° NNW
Atlas Centaur 2 3.8 05:12:47 14° SSE 05:13:58 15° SSE 05:16:48 10° ESE
ATLAS CENTAUR R/B 1.1 05:15:13 10° NNW 05:19:27 71° WSW 05:23:17 10° SSE
Meteor 2-3 Rocket 4.4 05:14:46 10° NNW 05:19:53 34° W 05:19:58 34° W
Cosmos 1892 4.1 05:21:16 10° NNW 05:23:20 25° NW 05:23:20 25° NW
IRS-1C Rocket 4.1 05:19:35 10° N 05:24:48 64° WNW 05:27:17 31° SW
CZ-3 R/B 4.1 04:37:06 10° W 05:26:51 57° SSW 05:37:17 10° SE
Cosmos 2074 Rocket 4.0 05:25:50 10° N 05:32:04 84° E 05:38:18 10° S
Cosmos 2184 Rocket 4.1 05:27:25 10° N 05:33:50 84° E 05:40:11 10° S
COSMOS 2406 3.4 05:29:25 17° SSW 05:33:59 76° ESE 05:39:45 10° NNE
Cosmos 2327 Rocket 4.5 05:28:22 10° N 05:34:30 85° E 05:40:40 10° S
SL-27 R/B 2.4 05:33:34 38° SSW 05:34:52 82° WNW 05:38:32 10° NNE
Cosmos 1733 Rocket 3.3 05:32:46 10° NNW 05:36:56 44° W 05:38:54 27° SSW
CZ-2D R/B 3.8 05:44:27 10° NNW 05:47:19 15° WNW 05:48:11 14° WNW
CZ-4B DEB 4.3 05:45:37 10° N 05:50:57 54° WNW 05:55:33 14° SSW
Cosmos 1455 4.0 05:54:29 16° WNW 05:54:29 16° WNW 05:56:45 10° NW
Cosmos 2221 Rocket 3.5 05:50:10 10° S 05:54:36 81° W 05:59:03 10° N
Cosmos 2369 Rocket 3.1 05:51:12 10° NW 05:55:43 25° WSW 06:00:14 10° SSW
Okean O Rocket 2.7 05:52:08 10° NNW 05:55:53 27° WNW 05:57:46 20° WSW
CENTAUR R/B 2.7 05:51:52 20° SW 05:56:05 55° NW 06:02:43 10° NNE
CZ-4B R/B 3.5 05:51:15 10° N 05:56:15 43° WNW 06:00:18 15° SW
Okean-O 2.6 05:53:03 10° NNE 05:57:30 88° WNW 06:01:56 10° SSW
Aureole 3 Rocket 4.1 05:51:42 10° S 05:59:44 82° W 06:05:26 10° N
ADEOS Rocket 3.6 05:52:22 10° NNE 06:00:09 86° WNW 06:07:52 10° SSW
Cosmos 2285 Rocket 4.1 05:55:46 10° NNW 06:02:13 90° NE 06:08:36 10° SSE
Cosmos 1908 Rocket 3.7 05:59:28 10° NNW 06:03:43 52° W 06:07:56 10° S
Meteor PRIRODA 3.7 06:01:22 10° NNE 06:05:09 88° E 06:08:55 10° SSW
Sich 1 Rocket 4.2 06:07:53 10° NNW 06:11:48 33° W 06:15:44 10° SSW
Cosmos 389 Rocket 4.3 06:13:58 13° W 06:14:46 14° WNW 06:16:42 10° NW
Cosmos 1703 Rocket 4.2 06:13:47 10° SSW 06:17:55 37° W 06:22:05 10° N
Meteor 1-31 Rocket 2.8 06:16:06 10° NNE 06:19:55 81° ESE 06:23:42 10° S
Cosmos 407 Rocket 3.5 06:15:01 10° SSW 06:20:12 85° WNW 06:25:29 10° NNE
Cosmos 1943 Rocket 2.7 06:21:13 10° NW 06:26:18 35° WSW 06:31:20 10° SSW
Cosmos 1862 4.3 06:23:40 10° NW 06:26:59 25° W 06:30:16 10° SSW
Meteor 2-10 Rocket 4.0 06:26:04 10° S 06:31:53 80° E 06:37:39 10° N
Cosmos 1825 3.5 06:34:06 10° NW 06:36:54 20° W 06:39:41 10° SW
COSMOS 2487 2.7 06:34:31 10° SSW 06:38:01 51° WNW 06:41:33 10° N
